datetime,ave relative humidity
1999-03-31,78.16
1999-04-01,52.48
1999-04-02,52.11
1999-04-03,60.41
1999-04-04,71.38
1999-04-05,91.2
1999-04-06,66.78
1999-04-07,68.47
1999-04-08,86.34
1999-04-09,76.21
1999-04-10,85.23
1999-04-11,70.32
1999-04-12,60.82
1999-04-13,53.59
1999-04-14,38.14
1999-04-15,27.31
1999-04-16,47.19
1999-04-17,49.99
1999-04-18,60.46
1999-04-19,69.21
1999-04-20,56.74
1999-04-21,65.58
1999-04-22,57.68
1999-04-23,44.27
1999-04-24,42.12
1999-04-25,65.97
1999-04-26,63.42
1999-04-27,61.57
1999-04-28,56.2
1999-04-29,50.8
1999-04-30,53.34
1999-05-01,65.08
1999-05-02,86.54
1999-05-03,75.71
1999-05-04,66.87
1999-05-05,64.25
1999-05-06,65.88
1999-05-07,53.14
1999-05-08,52.81
1999-05-09,52.24
1999-05-10,71.69
1999-05-11,86.6
1999-05-12,65.56
1999-05-13,63.34
1999-05-14,71.6
1999-05-15,64.67
1999-05-16,58.2
1999-05-17,52.68
1999-05-18,64.53
1999-05-19,65.97
1999-05-20,64.08
1999-05-21,56.76
1999-05-22,41.73
1999-05-23,43.78
1999-05-24,50.48
1999-05-25,59.34
1999-05-26,53.5
1999-05-27,51.98
1999-05-28,63.67
1999-05-29,67.11
1999-05-30,47.39
1999-05-31,49.79
1999-06-01,65.37
1999-06-02,65.18
1999-06-03,66.24
1999-06-04,71.26
1999-06-05,66.06
1999-06-06,53.06
1999-06-07,60.1
1999-06-08,58.25
1999-06-09,51.72
1999-06-10,50.89
1999-06-11,48.17
1999-06-12,52.95
1999-06-13,54.32
1999-06-14,52.93
1999-06-15,57.19
1999-06-16,62.28
1999-06-17,64.09
1999-06-18,59.28
1999-06-19,59.11
1999-06-20,59.78
1999-06-21,69.22
1999-06-22,63.36
1999-06-23,52.32
1999-06-24,57.08
1999-06-25,57.43
1999-06-26,62.99
1999-06-27,59.5
1999-06-28,55.43
1999-06-29,53.32
1999-06-30,41.66
1999-07-01,48.92
1999-07-02,53.94
1999-07-03,66.84
1999-07-04,61.88
1999-07-05,50.11
1999-07-06,52.62
1999-07-07,54.17
1999-07-08,48.38
1999-07-09,45.39
1999-07-10,48.89
1999-07-11,50.15
1999-07-12,41.03
1999-07-13,48.38
1999-07-14,45.96
1999-07-15,45.85
1999-07-16,50.84
1999-07-17,51.56
1999-07-18,49.7
1999-07-19,43.62
1999-07-20,45.98
1999-07-21,52.27
1999-07-22,53.68
1999-07-23,56.44
1999-07-24,57.11
1999-07-25,53.56
1999-07-26,43.3
1999-07-27,44.18
1999-07-28,41.83
1999-07-29,47.56
1999-07-30,51.24
1999-07-31,52.59
1999-08-01,52.48
1999-08-02,56.71
1999-08-03,60.8
1999-08-04,62.11
1999-08-05,57.54
1999-08-06,82.23
1999-08-07,79.78
1999-08-08,74.37
1999-08-09,70.03
1999-08-10,76.29
1999-08-11,76.85
1999-08-12,71.28
1999-08-13,75.04
1999-08-14,65.81
1999-08-15,63.06
1999-08-16,59.07
1999-08-17,51.12
1999-08-18,51.3
1999-08-19,60.7
1999-08-20,61.74
1999-08-21,57.94
1999-08-22,54.61
1999-08-23,66.53
1999-08-24,67.14
1999-08-25,60.92
1999-08-26,55.82
1999-08-27,56.18
1999-08-28,69.54
1999-08-29,68.05
1999-08-30,80.6
1999-08-31,68.96
1999-09-01,64.58
1999-09-02,52.79
1999-09-03,50.54
1999-09-04,53.17
1999-09-05,59.56
1999-09-06,57.91
1999-09-07,54.13
1999-09-08,45.94
1999-09-09,61.13
1999-09-10,58.24
1999-09-11,41.37
1999-09-12,42.41
1999-09-13,38.29
1999-09-14,39.7
1999-09-15,44.21
1999-09-16,58.29
1999-09-17,60.0
1999-09-18,44.2
1999-09-19,43.12
1999-09-20,45.28
1999-09-21,51.52
1999-09-22,55.1
1999-09-23,50.79
1999-09-24,43.28
1999-09-25,52.88
1999-09-26,51.63
1999-09-27,47.7
1999-09-28,41.14
1999-09-29,53.48
1999-09-30,53.73
1999-10-01,48.1
1999-10-02,45.09
1999-10-03,50.68
1999-10-04,51.29
1999-10-05,60.93
1999-10-06,82.64
1999-10-07,78.62
1999-10-08,70.99
1999-10-09,74.95
1999-10-10,65.73
1999-10-11,58.1
1999-10-12,62.16
1999-10-13,61.8
1999-10-14,62.28
1999-10-15,46.39
1999-10-16,28.92
1999-10-17,38.62
1999-10-18,50.75
1999-10-19,48.94
1999-10-20,58.27
1999-10-21,58.04
1999-10-22,63.19
1999-10-23,52.44
1999-10-24,55.95
1999-10-25,54.12
1999-10-26,77.14
1999-10-27,90.24
1999-10-28,81.4
1999-10-29,86.36
1999-10-30,80.08
1999-10-31,65.78
1999-11-01,70.25
1999-11-02,81.47
1999-11-03,72.6
1999-11-04,75.77
1999-11-05,78.42
1999-11-06,49.79
1999-11-07,61.31
1999-11-08,65.47
1999-11-09,66.18
1999-11-10,85.16
1999-11-11,80.58
1999-11-12,77.96
1999-11-13,78.05
1999-11-14,82.65
1999-11-15,71.73
1999-11-16,83.14
1999-11-17,91.05
1999-11-18,80.39
1999-11-19,74.21
1999-11-20,69.19
1999-11-21,82.61
1999-11-22,93.05
1999-11-23,92.0
1999-11-24,92.91
1999-11-25,93.51
1999-11-26,92.01
1999-11-27,94.8
1999-11-28,81.46
1999-11-29,61.27
1999-11-30,91.23
1999-12-01,92.51
1999-12-02,96.0
1999-12-03,91.96
1999-12-04,89.86
1999-12-05,90.18
1999-12-06,90.61
1999-12-07,90.37
1999-12-08,94.04
1999-12-09,86.54
1999-12-10,80.0
1999-12-11,80.0
1999-12-12,80.0
1999-12-13,74.64
1999-12-14,89.69
1999-12-15,88.68
1999-12-16,88.92
1999-12-17,93.17
1999-12-18,82.48
1999-12-19,86.55
1999-12-20,98.65
1999-12-21,75.9
1999-12-22,78.2
1999-12-23,80.82
1999-12-24,81.35
1999-12-25,71.03
1999-12-26,60.94
1999-12-27,72.25
1999-12-28,79.19
1999-12-29,83.3
1999-12-30,83.86
1999-12-31,82.87
2000-01-01,88.31
2000-01-02,89.86
2000-01-03,91.07
2000-01-04,92.31
2000-01-05,84.0
2000-01-06,88.57
2000-01-07,91.47
2000-01-08,85.73
2000-01-09,93.55
2000-01-10,97.27
2000-01-11,92.68
2000-01-12,75.74
2000-01-13,80.35
2000-01-14,94.46
2000-01-15,93.35
2000-01-16,75.53
2000-01-17,84.95
2000-01-18,97.94
2000-01-19,97.21
2000-01-20,85.16
2000-01-21,89.47
2000-01-22,85.75
2000-01-23,94.32
2000-01-24,98.83
2000-01-25,97.75
2000-01-26,90.12
2000-01-27,73.26
2000-01-28,72.08
2000-01-29,79.25
2000-01-30,87.14
2000-01-31,98.69
2000-02-01,89.24
2000-02-02,94.13
2000-02-03,87.64
2000-02-04,86.82
2000-02-05,81.95
2000-02-06,84.62
2000-02-07,69.71
2000-02-08,65.04
2000-02-09,89.32
2000-02-10,90.71
2000-02-11,86.84
2000-02-12,84.54
2000-02-13,91.24
2000-02-14,82.59
2000-02-15,84.08
2000-02-16,94.8
2000-02-17,82.93
2000-02-18,78.53
2000-02-19,71.86
2000-02-20,78.68
2000-02-21,83.78
2000-02-22,74.42
2000-02-23,86.53
2000-02-24,83.31
2000-02-25,84.34
2000-02-26,89.62
2000-02-27,89.76
2000-02-28,83.1
2000-02-29,80.97
2000-03-01,84.08
2000-03-02,92.1
2000-03-03,82.35
2000-03-04,97.25
2000-03-05,94.68
2000-03-06,85.39
2000-03-07,85.51
2000-03-08,81.87
2000-03-09,87.3
2000-03-10,82.1
2000-03-11,73.25
2000-03-12,70.71
2000-03-13,80.66
2000-03-14,64.19
2000-03-15,58.31
2000-03-16,69.15
2000-03-17,70.78
2000-03-18,80.97
2000-03-19,74.47
2000-03-20,52.92
2000-03-21,54.41
2000-03-22,70.36
2000-03-23,66.88
2000-03-24,63.84
2000-03-25,69.68
2000-03-26,61.14
2000-03-27,72.42
2000-03-28,65.44
2000-03-29,57.96
2000-03-30,38.56
2000-03-31,38.39
2000-04-01,49.07
2000-04-02,55.82
2000-04-03,56.2
2000-04-04,59.38
2000-04-05,63.97
2000-04-06,57.86
2000-04-07,61.07
2000-04-08,65.17
2000-04-09,76.73
2000-04-10,64.98
2000-04-11,58.38
2000-04-12,73.62
2000-04-13,84.23
2000-04-14,83.08
2000-04-15,86.94
2000-04-16,78.03
2000-04-17,87.83
2000-04-18,95.19
2000-04-19,83.69
2000-04-20,74.16
2000-04-21,66.88
2000-04-22,62.83
2000-04-23,59.44
2000-04-24,62.3
2000-04-25,59.72
2000-04-26,63.6
2000-04-27,53.54
2000-04-28,58.25
2000-04-29,55.68
2000-04-30,45.65
2000-05-01,62.81
2000-05-02,70.3
2000-05-03,62.22
2000-05-04,59.99
2000-05-05,61.52
2000-05-06,71.71
2000-05-07,78.94
2000-05-08,68.29
2000-05-09,59.19
2000-05-10,71.63
2000-05-11,69.66
2000-05-12,56.09
2000-05-13,57.39
2000-05-14,63.95
2000-05-15,71.93
2000-05-16,69.67
2000-05-17,64.05
2000-05-18,56.04
2000-05-19,50.54
2000-05-20,53.41
2000-05-21,50.4
2000-05-22,55.8
2000-05-23,56.0
2000-05-24,62.49
2000-05-25,60.24
2000-05-26,56.45
2000-05-27,57.34
2000-05-28,51.59
2000-05-29,55.3
2000-05-30,55.66
2000-05-31,49.12
2000-06-01,40.21
2000-06-02,46.38
2000-06-03,46.83
2000-06-04,40.82
2000-06-05,44.92
2000-06-06,56.6
2000-06-07,58.83
2000-06-08,73.61
2000-06-09,64.76
2000-06-10,58.33
2000-06-11,69.86
2000-06-12,69.37
2000-06-13,61.69
2000-06-14,50.53
2000-06-15,44.22
2000-06-16,23.81
2000-06-17,29.17
2000-06-18,46.81
2000-06-19,49.06
2000-06-20,43.0
2000-06-21,43.14
2000-06-22,52.43
2000-06-23,50.17
2000-06-24,49.53
2000-06-25,51.68
2000-06-26,38.32
2000-06-27,36.35
2000-06-28,43.54
2000-06-29,43.62
2000-06-30,47.91
2000-07-01,55.69
2000-07-02,51.78
2000-07-03,55.89
2000-07-04,64.1
2000-07-05,85.49
2000-07-06,71.53
2000-07-07,63.64
2000-07-08,66.77
2000-07-09,59.21
2000-07-10,52.99
2000-07-11,55.55
2000-07-12,51.3
2000-07-13,52.79
2000-07-14,55.52
2000-07-15,48.99
2000-07-16,44.99
2000-07-17,54.88
2000-07-18,59.57
2000-07-19,55.12
2000-07-20,49.12
2000-07-21,51.1
2000-07-22,59.97
2000-07-23,52.58
2000-07-24,49.14
2000-07-25,51.62
2000-07-26,52.43
2000-07-27,53.06
2000-07-28,53.05
2000-07-29,52.99
2000-07-30,50.99
2000-07-31,51.49
2000-08-01,51.63
2000-08-02,48.57
2000-08-03,47.63
2000-08-04,43.38
2000-08-05,50.35
2000-08-06,51.16
2000-08-07,51.87
2000-08-08,39.28
2000-08-09,44.55
2000-08-10,56.07
2000-08-11,56.28
2000-08-12,49.88
2000-08-13,49.71
2000-08-14,51.17
2000-08-15,49.61
2000-08-16,50.92
2000-08-17,49.21
2000-08-18,53.09
2000-08-19,61.07
2000-08-20,55.33
2000-08-21,47.09
2000-08-22,39.4
2000-08-23,39.6
2000-08-24,44.46
2000-08-25,52.86
2000-08-26,55.33
2000-08-27,56.41
2000-08-28,52.14
2000-08-29,49.67
2000-08-30,50.21
2000-08-31,58.15
2000-09-01,76.5
2000-09-02,71.5
2000-09-03,69.84
2000-09-04,83.87
2000-09-05,68.0
2000-09-06,63.87
2000-09-07,57.65
2000-09-08,59.19
2000-09-09,58.38
2000-09-10,60.6
2000-09-11,64.18
2000-09-12,53.62
2000-09-13,50.77
2000-09-14,58.62
2000-09-15,67.05
2000-09-16,75.33
2000-09-17,64.58
2000-09-18,49.22
2000-09-19,48.69
2000-09-20,39.02
2000-09-21,58.02
2000-09-22,49.12
2000-09-23,47.51
2000-09-24,49.94
2000-09-25,49.01
2000-09-26,48.51
2000-09-27,50.46
2000-09-28,54.13
2000-09-29,61.13
2000-09-30,62.68
2000-10-01,63.55
2000-10-02,59.67
2000-10-03,51.91
2000-10-04,43.43
2000-10-05,42.05
2000-10-06,39.89
2000-10-07,41.82
2000-10-08,52.71
2000-10-09,77.83
2000-10-10,80.29
2000-10-11,83.2
2000-10-12,85.97
2000-10-13,74.89
2000-10-14,78.92
2000-10-15,74.96
2000-10-16,69.48
2000-10-17,60.99
2000-10-18,63.83
2000-10-19,70.87
2000-10-20,84.58
2000-10-21,67.9
2000-10-22,52.22
2000-10-23,55.8
2000-10-24,63.11
2000-10-25,64.63
2000-10-26,80.44
2000-10-27,81.01
2000-10-28,78.48
2000-10-29,81.73
2000-10-30,74.27
2000-10-31,76.27
2000-11-01,84.54
2000-11-02,82.5
2000-11-03,81.19
2000-11-04,80.65
2000-11-05,68.02
2000-11-06,63.42
2000-11-07,74.69
2000-11-08,78.41
2000-11-09,78.71
2000-11-10,75.47
2000-11-11,72.61
2000-11-12,71.68
2000-11-13,82.18
2000-11-14,96.56
2000-11-15,90.29
2000-11-16,88.81
2000-11-17,93.31
2000-11-18,91.79
2000-11-19,90.92
2000-11-20,84.4
2000-11-21,76.09
2000-11-22,73.06
2000-11-23,82.62
2000-11-24,96.83
2000-11-25,90.82
2000-11-26,92.34
2000-11-27,86.76
2000-11-28,94.73
2000-11-29,84.95
2000-11-30,82.19
2000-12-01,92.12
2000-12-02,86.49
2000-12-03,92.05
2000-12-04,87.0
2000-12-05,82.34
2000-12-06,80.05
2000-12-07,87.16
2000-12-08,83.59
2000-12-09,87.29
2000-12-10,70.56
2000-12-11,92.11
2000-12-12,94.8
2000-12-13,93.27
2000-12-14,86.01
2000-12-15,78.43
2000-12-16,82.44
2000-12-17,75.02
2000-12-18,76.57
2000-12-19,67.86
2000-12-20,79.24
2000-12-21,70.63
2000-12-22,69.1
2000-12-23,92.37
2000-12-24,81.79
2000-12-25,84.31
2000-12-26,75.33
2000-12-27,79.12
2000-12-28,76.75
2000-12-29,78.68
2000-12-30,78.94
2000-12-31,80.13
2001-01-01,77.02
2001-01-02,62.71
2001-01-03,75.0
2001-01-04,69.14
2001-01-05,70.72
2001-01-06,82.54
2001-01-07,61.74
2001-01-08,73.02
2001-01-09,84.56
2001-01-10,81.52
2001-01-11,89.84
2001-01-12,98.18
2001-01-13,92.58
2001-01-14,82.27
2001-01-15,64.99
2001-01-16,74.4
2001-01-17,76.72
2001-01-18,74.75
2001-01-19,70.1
2001-01-20,66.8
2001-01-21,61.53
2001-01-22,70.21
2001-01-23,65.64
2001-01-24,89.91
2001-01-25,81.31
2001-01-26,72.33
2001-01-27,62.16
2001-01-28,67.05
2001-01-29,77.02
2001-01-30,78.99
2001-01-31,72.73
2001-02-01,68.44
2001-02-02,74.78
2001-02-03,91.5
2001-02-04,94.04
2001-02-05,72.39
2001-02-06,71.11
2001-02-07,55.44
2001-02-08,68.14
2001-02-09,84.16
2001-02-10,78.52
2001-02-11,77.35
2001-02-12,71.18
2001-02-13,56.58
2001-02-14,65.03
2001-02-15,66.5
2001-02-16,70.16
2001-02-17,63.38
2001-02-18,74.66
2001-02-19,78.14
2001-02-20,73.66
2001-02-21,74.27
2001-02-22,91.83
2001-02-23,84.43
2001-02-24,91.12
2001-02-25,80.34
2001-02-26,60.94
2001-02-27,51.57
2001-02-28,54.78
2001-03-01,76.7
2001-03-02,79.09
2001-03-03,86.15
2001-03-04,76.33
2001-03-05,74.93
2001-03-06,63.51
2001-03-07,61.22
2001-03-08,65.98
2001-03-09,75.24
2001-03-10,63.7
2001-03-11,60.13
2001-03-12,60.06
2001-03-13,59.69
2001-03-14,52.13
2001-03-15,78.75
2001-03-16,55.73
2001-03-17,83.15
2001-03-18,69.09
2001-03-19,65.64
2001-03-20,80.25
2001-03-21,78.77
2001-03-22,71.72
2001-03-23,66.44
2001-03-24,68.46
2001-03-25,68.87
2001-03-26,66.75
2001-03-27,79.44
2001-03-28,74.47
2001-03-29,66.86
2001-03-30,65.4
2001-03-31,66.9
2001-04-01,63.94
2001-04-02,66.95
2001-04-03,57.46
2001-04-04,48.92
2001-04-05,46.5
2001-04-06,93.24
2001-04-07,76.33
2001-04-08,80.74
2001-04-09,67.74
2001-04-10,75.34
2001-04-11,67.86
2001-04-12,69.47
2001-04-13,62.3
2001-04-14,57.19
2001-04-15,48.8
2001-04-16,41.42
2001-04-17,59.11
2001-04-18,91.14
2001-04-19,79.76
2001-04-20,77.54
2001-04-21,64.29
2001-04-22,68.97
2001-04-23,64.72
2001-04-24,58.45
2001-04-25,51.71
2001-04-26,51.24
2001-04-27,59.61
2001-04-28,62.8
2001-04-29,63.84
2001-04-30,67.05
2001-05-01,50.83
2001-05-02,39.29
2001-05-03,29.83
2001-05-04,39.86
2001-05-05,37.1
2001-05-06,41.71
2001-05-07,41.5
2001-05-08,39.09
2001-05-09,38.88
2001-05-10,37.7
2001-05-11,36.0
2001-05-12,32.75
2001-05-13,47.2
2001-05-14,64.3
2001-05-15,88.45
2001-05-16,60.32
2001-05-17,60.78
2001-05-18,55.8
2001-05-19,45.95
2001-05-20,40.42
2001-05-21,28.91
2001-05-22,34.54
2001-05-23,43.03
2001-05-24,48.36
2001-05-25,47.19
2001-05-26,41.61
2001-05-27,46.97
2001-05-28,49.21
2001-05-29,44.22
2001-05-30,41.12
2001-05-31,29.73
2001-06-01,47.28
2001-06-02,51.51
2001-06-03,49.07
2001-06-04,48.14
2001-06-05,66.99
2001-06-06,56.47
2001-06-07,51.82
2001-06-08,50.56
2001-06-09,49.89
2001-06-10,54.5
2001-06-11,58.81
2001-06-12,41.19
2001-06-13,44.62
2001-06-14,39.45
2001-06-15,42.55
2001-06-16,36.58
2001-06-17,36.37
2001-06-18,31.88
2001-06-19,28.86
2001-06-20,34.51
2001-06-21,38.2
2001-06-22,36.15
2001-06-23,42.46
2001-06-24,54.76
2001-06-25,65.83
2001-06-26,77.26
2001-06-27,63.52
2001-06-28,59.0
2001-06-29,55.83
2001-06-30,50.71
2001-07-01,50.46
2001-07-02,41.87
2001-07-03,36.84
2001-07-04,45.61
2001-07-05,45.94
2001-07-06,38.58
2001-07-07,39.25
2001-07-08,36.47
2001-07-09,35.62
2001-07-10,58.05
2001-07-11,71.14
2001-07-12,57.82
2001-07-13,46.19
2001-07-14,44.64
2001-07-15,47.3
2001-07-16,47.89
2001-07-17,50.49
2001-07-18,53.84
2001-07-19,56.24
2001-07-20,57.47
2001-07-21,50.85
2001-07-22,47.26
2001-07-23,44.41
2001-07-24,45.06
2001-07-25,40.93
2001-07-26,36.88
2001-07-27,38.54
2001-07-28,40.72
2001-07-29,56.49
2001-07-30,62.84
2001-07-31,54.48
2001-08-01,48.77
2001-08-02,41.99
2001-08-03,41.65
2001-08-04,49.99
2001-08-05,50.74
2001-08-06,46.2
2001-08-07,44.5
2001-08-08,40.11
2001-08-09,42.92
2001-08-10,43.97
2001-08-11,38.59
2001-08-12,40.41
2001-08-13,39.01
2001-08-14,44.48
2001-08-15,47.68
2001-08-16,46.28
2001-08-17,42.55
2001-08-18,46.79
2001-08-19,49.41
2001-08-20,45.37
2001-08-21,50.03
2001-08-22,59.3
2001-08-23,59.97
2001-08-24,55.0
2001-08-25,42.6
2001-08-26,44.07
2001-08-27,41.3
2001-08-28,43.4
2001-08-29,44.7
2001-08-30,48.44
2001-08-31,46.97
2001-09-01,51.17
2001-09-02,48.74
2001-09-03,44.8
2001-09-04,41.92
2001-09-05,53.85
2001-09-06,43.28
2001-09-07,36.07
2001-09-08,27.11
2001-09-09,35.62
2001-09-10,37.12
2001-09-11,42.67
2001-09-12,53.38
2001-09-13,89.18
2001-09-14,77.83
2001-09-15,70.9
2001-09-16,71.61
2001-09-17,59.26
2001-09-18,49.66
2001-09-19,48.07
2001-09-20,41.49
2001-09-21,39.13
2001-09-22,39.61
2001-09-23,42.46
2001-09-24,44.08
2001-09-25,75.49
2001-09-26,76.15
2001-09-27,76.01
2001-09-28,68.25
2001-09-29,61.05
2001-09-30,51.25
2001-10-01,47.45
2001-10-02,46.2
2001-10-03,46.18
2001-10-04,42.92
2001-10-05,36.54
2001-10-06,53.67
2001-10-07,48.42
2001-10-08,50.5
2001-10-09,59.12
2001-10-10,53.07
2001-10-11,64.87
2001-10-12,65.75
2001-10-13,63.44
2001-10-14,61.36
2001-10-15,60.8
2001-10-16,48.55
2001-10-17,51.42
2001-10-18,40.93
2001-10-19,42.24
2001-10-20,46.79
2001-10-21,50.14
2001-10-22,66.22
2001-10-23,68.09
2001-10-24,67.61
2001-10-25,56.37
2001-10-26,54.65
2001-10-27,51.09
2001-10-28,70.06
2001-10-29,75.37
2001-10-30,83.13
2001-10-31,73.51
2001-11-01,78.0
2001-11-02,86.37
2001-11-03,72.98
2001-11-04,67.61
2001-11-05,71.61
2001-11-06,73.17
2001-11-07,63.5
2001-11-08,61.33
2001-11-09,64.06
2001-11-10,63.96
2001-11-11,67.06
2001-11-12,85.55
2001-11-13,88.85
2001-11-14,79.48
2001-11-15,78.82
2001-11-16,81.75
2001-11-17,88.11
2001-11-18,81.63
2001-11-19,76.07
2001-11-20,87.56
2001-11-21,91.0
2001-11-22,75.35
2001-11-23,79.33
2001-11-24,97.02
2001-11-25,91.85
2001-11-26,91.54
2001-11-27,90.54
2001-11-28,93.33
2001-11-29,82.55
2001-11-30,80.76
2001-12-01,80.62
2001-12-02,82.27
2001-12-03,81.14
2001-12-04,80.79
2001-12-05,90.64
2001-12-06,77.3
2001-12-07,88.42
2001-12-08,87.81
2001-12-09,81.65
2001-12-10,84.1
2001-12-11,92.44
2001-12-12,94.07
2001-12-13,93.79
2001-12-14,81.45
2001-12-15,84.43
2001-12-16,81.94
2001-12-17,82.71
2001-12-18,90.25
2001-12-19,86.37
2001-12-20,89.53
2001-12-21,96.84
2001-12-22,88.93
2001-12-23,89.45
2001-12-24,89.66
2001-12-25,85.18
2001-12-26,89.73
2001-12-27,83.47
2001-12-28,85.33
2001-12-29,95.23
2001-12-30,98.79
2001-12-31,99.97
2002-01-01,90.17
2002-01-02,91.67
2002-01-03,94.51
2002-01-04,93.37
2002-01-05,79.0
2002-01-06,82.05
2002-01-07,53.74
2002-01-08,87.33
2002-01-09,89.19
2002-01-10,88.94
2002-01-11,86.03
2002-01-12,73.59
2002-01-13,83.6
2002-01-14,73.96
2002-01-15,67.45
2002-01-16,64.18
2002-01-17,79.46
2002-01-18,79.86
2002-01-19,74.4
2002-01-20,76.49
2002-01-21,84.01
2002-01-22,83.8
2002-01-23,86.53
2002-01-24,83.0
2002-01-25,70.98
2002-01-26,79.76
2002-01-27,73.31
2002-01-28,77.69
2002-01-29,69.99
2002-01-30,71.79
2002-01-31,75.67
2002-02-01,87.97
2002-02-02,87.08
2002-02-03,75.02
2002-02-04,81.41
2002-02-05,77.51
2002-02-06,68.62
2002-02-07,82.96
2002-02-08,79.5
2002-02-09,75.49
2002-02-10,66.25
2002-02-11,70.96
2002-02-12,59.14
2002-02-13,61.2
2002-02-14,55.55
2002-02-15,61.83
2002-02-16,77.25
2002-02-17,92.17
2002-02-18,85.16
2002-02-19,92.79
2002-02-20,91.41
2002-02-21,84.65
2002-02-22,67.96
2002-02-23,86.23
2002-02-24,69.4
2002-02-25,65.7
2002-02-26,61.24
2002-02-27,49.14
2002-02-28,46.81
2002-03-01,45.52
2002-03-02,45.49
2002-03-03,54.88
2002-03-04,60.81
2002-03-05,75.55
2002-03-06,79.04
2002-03-07,74.14
2002-03-08,63.06
2002-03-09,62.9
2002-03-10,80.81
2002-03-11,67.69
2002-03-12,68.35
2002-03-13,73.05
2002-03-14,62.43
2002-03-15,74.59
2002-03-16,71.12
2002-03-17,69.76
2002-03-18,64.09
2002-03-19,58.91
2002-03-20,48.89
2002-03-21,48.88
2002-03-22,59.19
2002-03-23,83.08
2002-03-24,71.91
2002-03-25,66.16
2002-03-26,59.37
2002-03-27,53.19
2002-03-28,60.64
2002-03-29,55.29
2002-03-30,47.93
2002-03-31,44.47
2002-04-01,46.46
2002-04-02,43.03
2002-04-03,44.01
2002-04-04,47.59
2002-04-05,64.92
2002-04-06,67.79
2002-04-07,65.34
2002-04-08,64.36
2002-04-09,75.98
2002-04-10,66.42
2002-04-11,73.15
2002-04-12,64.28
2002-04-13,73.89
2002-04-14,66.93
2002-04-15,63.93
2002-04-16,88.24
2002-04-17,80.07
2002-04-18,61.32
2002-04-19,53.26
2002-04-20,59.98
2002-04-21,56.46
2002-04-22,56.25
2002-04-23,43.01
2002-04-24,30.66
2002-04-25,41.54
2002-04-26,53.11
2002-04-27,60.77
2002-04-28,61.12
2002-04-29,71.9
2002-04-30,95.72
2002-05-01,80.11
2002-05-02,64.11
2002-05-03,48.34
2002-05-04,49.39
2002-05-05,45.11
2002-05-06,54.96
2002-05-07,41.7
2002-05-08,37.35
2002-05-09,48.7
2002-05-10,47.6
2002-05-11,42.87
2002-05-12,44.1
2002-05-13,47.0
2002-05-14,53.69
2002-05-15,47.64
2002-05-16,49.59
2002-05-17,51.57
2002-05-18,49.85
2002-05-19,64.32
2002-05-20,65.53
2002-05-21,72.74
2002-05-22,60.78
2002-05-23,50.88
2002-05-24,49.74
2002-05-25,51.65
2002-05-26,56.04
2002-05-27,69.02
2002-05-28,67.97
2002-05-29,63.8
2002-05-30,53.87
2002-05-31,51.1
2002-06-01,67.37
2002-06-02,58.41
2002-06-03,51.48
2002-06-04,59.34
2002-06-05,57.15
2002-06-06,55.54
2002-06-07,49.89
2002-06-08,48.42
2002-06-09,56.59
2002-06-10,52.85
2002-06-11,45.38
2002-06-12,39.12
2002-06-13,44.02
2002-06-14,44.79
2002-06-15,50.82
2002-06-16,54.52
2002-06-17,70.37
2002-06-18,63.36
2002-06-19,53.47
2002-06-20,46.34
2002-06-21,51.77
2002-06-22,62.26
2002-06-23,59.34
2002-06-24,55.28
2002-06-25,49.33
2002-06-26,49.24
2002-06-27,51.97
2002-06-28,59.35
2002-06-29,47.38
2002-06-30,51.66
2002-07-01,55.7
2002-07-02,46.64
2002-07-03,45.37
2002-07-04,48.61
2002-07-05,49.86
2002-07-06,49.62
2002-07-07,57.16
2002-07-08,50.15
2002-07-09,39.09
2002-07-10,39.76
2002-07-11,46.21
2002-07-12,48.94
2002-07-13,51.94
2002-07-14,59.22
2002-07-15,54.47
2002-07-16,45.15
2002-07-17,48.87
2002-07-18,55.35
2002-07-19,52.54
2002-07-20,49.34
2002-07-21,42.8
2002-07-22,49.48
2002-07-23,51.9
2002-07-24,43.95
2002-07-25,51.62
2002-07-26,55.12
2002-07-27,52.54
2002-07-28,43.71
2002-07-29,43.11
2002-07-30,52.03
2002-07-31,51.76
2002-08-01,40.51
2002-08-02,48.83
2002-08-03,51.44
2002-08-04,69.56
2002-08-05,64.53
2002-08-06,57.96
2002-08-07,46.64
2002-08-08,45.48
2002-08-09,35.41
2002-08-10,44.52
2002-08-11,48.34
2002-08-12,39.01
2002-08-13,33.16
2002-08-14,39.78
2002-08-15,40.49
2002-08-16,39.8
2002-08-17,45.27
2002-08-18,43.7
2002-08-19,50.81
2002-08-20,59.18
2002-08-21,59.16
2002-08-22,49.73
2002-08-23,49.95
2002-08-24,57.1
2002-08-25,57.12
2002-08-26,60.35
2002-08-27,48.94
2002-08-28,46.54
2002-08-29,48.66
2002-08-30,52.79
2002-08-31,44.55
2002-09-01,48.37
2002-09-02,51.45
2002-09-03,53.32
2002-09-04,53.45
2002-09-05,48.95
2002-09-06,61.58
2002-09-07,61.17
2002-09-08,54.05
2002-09-09,50.57
2002-09-10,46.84
2002-09-11,44.12
2002-09-12,44.22
2002-09-13,44.42
2002-09-14,36.96
2002-09-15,37.58
2002-09-16,59.09
2002-09-17,74.06
2002-09-18,56.81
2002-09-19,45.05
2002-09-20,46.99
2002-09-21,35.9
2002-09-22,33.35
2002-09-23,34.52
2002-09-24,41.86
2002-09-25,38.48
2002-09-26,47.17
2002-09-27,47.95
2002-09-28,53.41
2002-09-29,64.11
2002-09-30,67.66
2002-10-01,56.46
2002-10-02,46.65
2002-10-03,76.81
2002-10-04,75.59
2002-10-05,69.22
2002-10-06,58.17
2002-10-07,47.89
2002-10-08,43.8
2002-10-09,49.15
2002-10-10,59.76
2002-10-11,55.64
2002-10-12,37.64
2002-10-13,44.27
2002-10-14,43.1
2002-10-15,32.5
2002-10-16,36.72
2002-10-17,48.31
2002-10-18,49.26
2002-10-19,58.55
2002-10-20,67.81
2002-10-21,66.71
2002-10-22,62.77
2002-10-23,62.07
2002-10-24,58.72
2002-10-25,57.71
2002-10-26,59.84
2002-10-27,71.85
2002-10-28,66.33
2002-10-29,68.87
2002-10-30,56.8
2002-10-31,32.7
2002-11-01,33.37
2002-11-02,44.0
2002-11-03,41.87
2002-11-04,42.61
2002-11-05,42.54
2002-11-06,34.27
2002-11-07,67.28
2002-11-08,78.37
2002-11-09,79.12
2002-11-10,86.36
2002-11-11,78.17
2002-11-12,80.78
2002-11-13,97.85
2002-11-14,88.61
2002-11-15,90.3
2002-11-16,57.07
2002-11-17,79.27
2002-11-18,82.62
2002-11-19,70.66
2002-11-20,78.64
2002-11-21,84.55
2002-11-22,89.74
2002-11-23,79.61
2002-11-24,87.07
2002-11-25,61.13
2002-11-26,59.98
2002-11-27,59.45
2002-11-28,71.45
2002-11-29,75.32
2002-11-30,77.02
2002-12-01,83.79
2002-12-02,91.1
2002-12-03,89.43
2002-12-04,85.96
2002-12-05,95.79
2002-12-06,85.77
2002-12-07,81.79
2002-12-08,81.93
2002-12-09,64.84
2002-12-10,85.23
2002-12-11,93.95
2002-12-12,80.38
2002-12-13,79.81
2002-12-14,79.0
2002-12-15,74.34
2002-12-16,93.44
2002-12-17,89.44
2002-12-18,84.52
2002-12-19,74.3
2002-12-20,78.98
2002-12-21,79.16
2002-12-22,81.86
2002-12-23,76.05
2002-12-24,84.21
2002-12-25,81.41
2002-12-26,76.8
2002-12-27,81.73
2002-12-28,92.0
2002-12-29,86.39
2002-12-30,79.51
2002-12-31,86.62
2003-01-01,87.08
2003-01-02,56.56
2003-01-03,77.04
2003-01-04,76.33
2003-01-05,84.37
2003-01-06,79.68
2003-01-07,75.81
2003-01-08,73.46
2003-01-09,83.33
2003-01-10,89.24
2003-01-11,89.4
2003-01-12,86.4
2003-01-13,94.76
2003-01-14,95.35
2003-01-15,93.74
2003-01-16,98.57
2003-01-17,92.75
2003-01-18,83.61
2003-01-19,88.99
2003-01-20,86.76
2003-01-21,71.65
2003-01-22,81.24
2003-01-23,87.73
2003-01-24,94.02
2003-01-25,92.82
2003-01-26,92.92
2003-01-27,94.23
2003-01-28,94.31
2003-01-29,94.77
2003-01-30,88.01
2003-01-31,85.89
2003-02-01,76.91
2003-02-02,76.28
2003-02-03,79.66
2003-02-04,63.0
2003-02-05,62.02
2003-02-06,53.03
2003-02-07,53.53
2003-02-08,60.94
2003-02-09,64.15
2003-02-10,60.47
2003-02-11,63.34
2003-02-12,63.53
2003-02-13,90.02
2003-02-14,81.32
2003-02-15,75.74